Regional Weather Roundup
Issued by NWS

Home | Current Version | Previous Version | Text Only | Print | Product List | Glossary Off
Versions: 1 2 3 4 5 6 7 8 9 10 11 12 13 14 15 16 17 18 19 20 21 22 23 24 25 26 27 28 29 30 31 32 33 34 35 36 37 38 39 40 41 42 43 44 45 46 47 48 49 50

000
ASUS43 KDTX 021410
RWRMI
MICHIGAN HOURLY REGIONAL WEATHER ROUNDUP
NATIONAL WEATHER SERVICE DETROIT/PONTIAC MI
1000 AM EDT TUE JUN 02 2015

NOTE: "FAIR" INDICATES FEW OR NO CLOUDS BELOW 12,000 FEET WITH NO
SIGNIFICANT WEATHER AND/OR OBSTRUCTION TO VISIBILITY.

MIZ047>049-052>055-059>063-066>070-074>076-081>083-021500-
SOUTHEAST LOWER MICHIGAN

CITY           SKY/WX    TMP DP  RH WIND       PRES   REMARKS
ADRIAN         SUNNY     61  48  62 NE5       30.22S
ALMA           SUNNY     57  41  56 CALM      30.26S
ANN ARBOR      SUNNY     62  48  60 VRB3      30.21F
BAD AXE        SUNNY     60  38  44 NE6       30.25S
CARO           SUNNY     60  42  53 CALM      30.24R
DETROIT CITY   SUNNY     60  44  55 VRB6      30.23S
DETROIT        MOSUNNY   60  46  59 CALM      30.23S
FLINT          SUNNY     61  40  45 NE3       30.24F
GROSSE ILE     SUNNY     59  48  67 NE7       30.21S
HILLSDALE      SUNNY     60  46  59 NE9       30.21F
HOWELL         SUNNY     57  45  63 CALM      30.23S

CITY           SKY/WX    TMP DP  RH WIND       PRES   REMARKS
JACKSON        SUNNY     60  45  57 N6        30.22F
LAMBERTVILLE   SUNNY     61  46  59 E5        30.21S
LANSING        SUNNY     58  42  55 E6        30.25S
LAPEER         FAIR      59  37  43 CALM      30.24S
MASON          SUNNY     56  43  62 N3        30.23F
MONROE         SUNNY     61  48  63 N3        30.20S
MT. CLEMENS    MOSUNNY   59  46  61 N6        30.20F
PONTIAC        SUNNY     61  44  53 NE7       30.22S
PORT HOPE        N/A     53  42  66 NW5       30.24S
PORT HURON     SUNNY     59  43  55 N5        30.23S
TRI CITIES     SUNNY     59  45  59 NE5       30.26R
MIDLAND        FAIR      60  42  51 E3        30.26S
TROY           SUNNY     61  45  55 N6        30.24S
SAGINAW HB     SUNNY     59  37  44 NE5       30.25S
$$
MIZ043>046-050>051-056>058-064>065-071>073-077>080-021500-
SOUTHWEST LOWER MICHIGAN

CITY           SKY/WX    TMP DP  RH WIND       PRES   REMARKS
BATTLE CREEK   SUNNY     59  41  51 NE6       30.23F
BENTON HARBOR  SUNNY     61  46  57 VRB5      30.22S
BIG RAPIDS     SUNNY     56  37  47 S7        30.25F
COLDWATER      SUNNY     58  44  58 NE6       30.21F
FREMONT        FAIR      56  37  48 SE3       30.24S
HOLLAND        SUNNY     59  46  62 VRB3      30.24F
GRAND RAPIDS   MOSUNNY   57  40  52 E5        30.24F
IONIA          FAIR      57  40  53 NE7       30.24F
KALAMAZOO      SUNNY     60  45  57 VRB3      30.23F
LUDINGTON      SUNNY     58  40  50 E3        30.23F
MARSHALL       SUNNY     59  41  52 CALM      30.22F
MOUNT PLEASANT SUNNY     57  41  54 CALM      30.25F
MUSKEGON       MOSUNNY   59  44  57 S3        30.23F
SOUTH HAVEN    SUNNY     61  44  53 E3        30.22F
$$
MIZ016>042-021500-
NORTHERN LOWER MICHIGAN

CITY           SKY/WX    TMP DP  RH WIND       PRES   REMARKS
ALPENA         SUNNY     62  36  37 CALM      30.26S
BEAVER ISLAND  SUNNY     59  32  35 S6        30.24F
BELLAIRE       SUNNY     58  37  45 CALM      30.25F
CADILLAC       SUNNY     58  34  40 S6        30.24S
CHARLEVOIX     SUNNY     59  36  41 S7        30.27F HAZE
FRANKFORT      SUNNY     62  29  28 SE3       30.23F
GRAYLING       SUNNY     57  33  40 CALM      30.26F
HARBOR SPRINGS SUNNY     59  30  32 CALM      30.25F
HOUGHTON LAKE  SUNNY     57  35  43 CALM      30.26
MANISTEE       SUNNY     57  36  44 E5        30.24F
OSCODA         SUNNY     62  35  37 N5        30.25S
PELLSTON       SUNNY     61  31  32 S6        30.25F
ROGERS CITY    SUNNY     60  35  39 N3        30.27S
TRAVERSE CITY  MOSUNNY   59  40  49 NE3       30.24F
$$
MIZ007>008-015-021500-
EASTERN UPPER MICHIGAN

CITY           SKY/WX    TMP DP  RH WIND       PRES   REMARKS
KINROSS        SUNNY     59  34  38 CALM      30.24F
MACKINAC ISLAN SUNNY     58  30  34 W5        30.25S
NEWBERRY       SUNNY     60  39  45 SW7       30.22F
S. S. MARIE    SUNNY     60  44  55 CALM      30.23S
MUNISING         N/A     62  41  46 S9        30.19S
$$
MIZ004>006-011>014-085-021500-
CENTRAL UPPER MICHIGAN

CITY           SKY/WX    TMP DP  RH WIND       PRES   REMARKS
MANISTIQUE     SUNNY     53  38  57 SE8       30.23S
ESCANABA       SUNNY     57  41  54 SE5       30.20S
MENOMINEE      SUNNY     59  37  44 CALM      30.21F
SAWYER-GWINN   SUNNY     57  32  38 SW10      30.19S
$$
MIZ001>003-009>011-084-021500-
WESTERN UPPER MICHIGAN

CITY           SKY/WX    TMP DP  RH WIND       PRES   REMARKS
IRON MOUNTAIN  MOSUNNY   57  38  48 S5        30.20S
HOUGHTON       CLOUDY    54  37  52 S7        30.14F
COPPER HARBOR    N/A     58  30  34 SW14G23   30.13F
IRONWOOD       PTSUNNY   57  37  47 SE3       30.10F
$$

ABBREVIATIONS USED IN REMARKS
   TC - TEMPERATURE IN CELSIUS
  WCI - WIND CHILL INDEX
   HX - HEAT INDEX
  VSB - VISIBILITY




USA.gov is the U.S. government's official web portal to all federal, state and local government web resources and services.